Flag for Greenland Weather past 2 weeks in Ittoqqortoormiit, Greenland

Now
42 °F

Light rain. Overcast.


Feels Like: 36 °F
Forecast: 35 / 40 °F
Wind: 8 mph from Northeast

Location: Scoresbysund

Current Time: Aug 4, 2015 at 12:10:20 PM

Latest Report: Aug 4, 2015 at 11:00 AM


Visibility: 25 mi

Pressure: 30.11 "Hg

Humidity: 84%

Dew point: 37 °F

Location of IttoqqortoormiitLocation

Historic Weather in Ittoqqortoormiit — Graph

°F

Ittoqqortoormiit temperature yesterday

Maximum temperature yesterday: 49 °F (at 5:00 PM)
Minimum temperature yesterday: 39 °F (at 8:00 AM)
Average temperature yesterday: 44 °F

Past Weeks' High & Low Weather Summary

 TemperatureHumidityPressure
High52 °F (Aug 1, 1:00 AM)99% (Jul 26, 6:00 AM)30.20 "Hg (Jul 26, 6:00 AM)
Low33 °F (Jul 26, 6:00 AM)58% (Aug 1, 2:00 AM)29.88 "Hg (Aug 1, 6:00 AM)
Average41 °F79%30.06 "Hg
* Reported Jul 20 10:00 AM — Aug 4 10:00 AM, Ittoqqortoormiit, Weather by CustomWeather, © 2015

Note: Actual official high and low records may vary slightly from our data, if they occured in-between our weather recording intervals... More about our weather records

Advertising

Ittoqqortoormiit weather history for previous 24 hours

 ConditionsComfort  
Time TempWeatherWind HumidityBarometerVisibility
10:00 AM
Tue, Aug 4
38 °FRain showers. Overcast.1 mph93%30.11 "Hg31 mi
9:00 AM37 °FOvercast.2 mph91%30.11 "Hg28 mi
8:00 AM38 °FLight rain. Overcast.2 mph91%30.11 "Hg19 mi
7:00 AM35 °FLight rain. Overcast.2 mph93%30.10 "Hg12 mi
6:00 AM37 °FRain. Overcast.2 mph87%30.09 "Hg4 mi
5:00 AM38 °FFog.2 mph82%30.08 "Hg31 mi
4:00 AM36 °FOvercast.6 mph82%30.08 "Hg31 mi
3:00 AM38 °FOvercast.2 mph82%30.09 "Hg31 mi
2:00 AM39 °FOvercast.2 mph80%30.09 "Hg31 mi
1:00 AM38 °FOvercast.6 mph83%30.09 "Hg31 mi
12:00 AM46 °FOvercast.2 mph65%30.08 "Hg31 mi
11:00 PM
Mon, Aug 3
44 °FOvercast.2 mph75%30.08 "Hg31 mi
10:00 PM46 °FPassing clouds.1 mph72%30.07 "Hg31 mi
8:00 PM49 °FPassing clouds.1 mph65%30.07 "Hg31 mi
7:00 PM48 °FOvercast.1 mph70%30.07 "Hg31 mi
6:00 PM47 °FOvercast.1 mph72%30.07 "Hg31 mi
5:00 PM49 °FOvercast.2 mph62%30.08 "Hg31 mi
4:00 PM47 °FOvercast.1 mph72%30.09 "Hg31 mi
3:00 PM47 °FOvercast.1 mph70%30.09 "Hg28 mi
2:00 PM44 °FOvercast.1 mph75%30.09 "Hg31 mi
1:00 PM41 °FOvercast.1 mph81%30.10 "Hg31 mi
12:00 PM42 °FOvercast.1 mph80%30.10 "Hg31 mi
Weather by CustomWeather, © 2015

See weather overviewHow to use our weather pages